| time (UTC) | temp C | wind direction | speed KPH | gust KPH | rain 1hr cm | rain 24hr cm | rain mn cm | humidity % | barometer mb |
| 20260901175518 | 20 | 339 | 16.1 | 20.9 | 0.00 | 0.00 | 0.00 | 75 | 1017.3 |
| 20260901174539 | 21 | 340 | 11.3 | 20.9 | 0.00 | 0.00 | 0.00 | 75 | 1017.3 |
| 20260901173541 | 21 | 319 | 12.9 | 20.9 | 0.00 | 0.00 | 0.00 | 74 | 1017.1 |
| 20260901172542 | 21 | 325 | 14.5 | 27.4 | 0.00 | 0.00 | 0.00 | 73 | 1016.9 |
| 20260901171518 | 21 | 313 | 22.5 | 41.8 | 0.00 | 0.00 | 0.00 | 73 | 1016.8 |
| 20260901170520 | 21 | 306 | 17.7 | 27.4 | 0.00 | 0.00 | 0.00 | 73 | 1016.7 |
| 20260901165517 | 21 | 306 | 17.7 | 25.7 | 0.00 | 0.00 | 0.00 | 73 | 1016.7 |
| 20260901164521 | 21 | 315 | 14.5 | 25.7 | 0.00 | 0.00 | 0.00 | 72 | 1016.6 |
| 20260901163518 | 21 | 315 | 17.7 | 32.2 | 0.00 | 0.00 | 0.00 | 72 | 1016.5 |
| 20260901162539 | 22 | 303 | 17.7 | 25.7 | 0.00 | 0.00 | 0.00 | 72 | 1016.4 |
| 20260901161517 | 22 | 329 | 14.5 | 25.7 | 0.00 | 0.00 | 0.00 | 72 | 1016.5 |
| 20260901160522 | 22 | 322 | 14.5 | 33.8 | 0.00 | 0.00 | 0.00 | 71 | 1016.4 |
| 20260901155539 | 22 | 306 | 20.9 | 37.0 | 0.00 | 0.00 | 0.00 | 72 | 1016.4 |
| 20260901154541 | 22 | 338 | 19.3 | 37.0 | 0.00 | 0.00 | 0.00 | 72 | 1016.3 |
| 20260901153518 | 22 | 304 | 29.0 | 40.2 | 0.00 | 0.00 | 0.00 | 71 | 1016.3 |
| 20260901152522 | 22 | 312 | 24.1 | 41.8 | 0.00 | 0.00 | 0.00 | 71 | 1016.2 |
| 20260901151516 | 22 | 323 | 22.5 | 32.2 | 0.00 | 0.00 | 0.00 | 70 | 1016.2 |
| 20260901150519 | 22 | 310 | 32.2 | 54.7 | 0.00 | 0.00 | 0.00 | 70 | 1016.2 |
| 20260901145518 | 23 | 318 | 27.4 | 43.5 | 0.00 | 0.00 | 0.00 | 68 | 1016.1 |
| 20260901144522 | 23 | 307 | 41.8 | 77.2 | 0.00 | 0.00 | 0.00 | 68 | 1016.1 |
| 20260901143516 | 23 | 313 | 38.6 | 59.5 | 0.00 | 0.00 | 0.00 | 68 | 1016.1 |
| 20260901142521 | 22 | 303 | 43.5 | 57.9 | 0.00 | 0.00 | 0.00 | 69 | 1016.2 |
| 20260901141518 | 23 | 298 | 40.2 | 62.8 | 0.00 | 0.00 | 0.00 | 68 | 1016.2 |
| 20260901140520 | 23 | 294 | 43.5 | 78.9 | 0.00 | 0.00 | 0.00 | 67 | 1016.1 |
| 20260901135519 | 24 | 302 | 48.3 | 69.2 | 0.00 | 0.00 | 0.00 | 65 | 1015.9 |
| 20260901134521 | 25 | 301 | 41.8 | 61.2 | 0.00 | 0.00 | 0.00 | 65 | 1015.8 |
| 20260901133518 | 25 | 294 | 40.2 | 49.9 | 0.00 | 0.00 | 0.00 | 65 | 1015.8 |
| 20260901132517 | 25 | 308 | 35.4 | 64.4 | 0.00 | 0.00 | 0.00 | 64 | 1015.8 |
| 20260901131517 | 24 | 296 | 41.8 | 82.1 | 0.00 | 0.00 | 0.00 | 66 | 1015.8 |
| 20260901130522 | 23 | 282 | 57.9 | 80.5 | 0.00 | 0.00 | 0.00 | 66 | 1015.9 |
| 20260901125517 | 23 | 285 | 51.5 | 67.6 | 0.00 | 0.00 | 0.00 | 68 | 1015.8 |
| 20260901124522 | 23 | 291 | 46.7 | 67.6 | 0.00 | 0.00 | 0.00 | 68 | 1015.7 |
| 20260901123518 | 23 | 299 | 43.5 | 64.4 | 0.00 | 0.00 | 0.00 | 67 | 1015.8 |
| 20260901122601 | 23 | 293 | 40.2 | 62.8 | 0.00 | 0.00 | 0.00 | 66 | 1015.8 |
| 20260901121517 | 23 | 283 | 37.0 | 56.3 | 0.00 | 0.00 | 0.00 | 63 | 1015.6 |
| 20260901120517 | 24 | 288 | 29.0 | 37.0 | 0.00 | 0.00 | 0.00 | 62 | 1015.6 |
| 20260901115518 | 24 | 293 | 30.6 | 48.3 | 0.00 | 0.00 | 0.00 | 62 | 1015.7 |
| 20260901114522 | 24 | 286 | 38.6 | 59.5 | 0.00 | 0.00 | 0.00 | 61 | 1015.8 |
| 20260901113517 | 25 | 273 | 43.5 | 66.0 | 0.00 | 0.00 | 0.00 | 60 | 1015.6 |
| 20260901112521 | 25 | 277 | 43.5 | 64.4 | 0.00 | 0.00 | 0.00 | 58 | 1015.5 |
| 20260901111518 | 25 | 302 | 24.1 | 41.8 | 0.00 | 0.00 | 0.00 | 57 | 1015.3 |
| 20260901110522 | 25 | 294 | 19.3 | 33.8 | 0.00 | 0.00 | 0.00 | 57 | 1015.2 |
| 20260901105517 | 25 | 255 | 27.4 | 38.6 | 0.00 | 0.00 | 0.00 | 56 | 1015.3 |
| 20260901104557 | 25 | 257 | 32.2 | 45.1 | 0.00 | 0.00 | 0.00 | 56 | 1015.4 |
| 20260901103520 | 25 | 237 | 30.6 | 40.2 | 0.00 | 0.00 | 0.00 | 55 | 1015.2 |
| 20260901102517 | 25 | 241 | 25.7 | 33.8 | 0.00 | 0.00 | 0.00 | 54 | 1015.1 |
| 20260901101522 | 25 | 233 | 33.8 | 46.7 | 0.00 | 0.00 | 0.00 | 52 | 1015.1 |
| 20260901100522 | 26 | 219 | 27.4 | 37.0 | 0.00 | 0.00 | 0.00 | 50 | 1015.1 |
| 20260901095517 | 26 | 251 | 27.4 | 41.8 | 0.00 | 0.00 | 0.00 | 48 | 1015.0 |
| 20260901094518 | 26 | 256 | 29.0 | 41.8 | 0.00 | 0.00 | 0.00 | 48 | 1015.1 |
| 20260901093518 | 26 | 250 | 25.7 | 38.6 | 0.00 | 0.00 | 0.00 | 49 | 1014.9 |
| 20260901092521 | 25 | 223 | 27.4 | 38.6 | 0.00 | 0.00 | 0.00 | 48 | 1014.9 |
| 20260901091518 | 25 | 203 | 19.3 | 29.0 | 0.00 | 0.00 | 0.00 | 49 | 1014.8 |
| 20260901090522 | 25 | 171 | 16.1 | 20.9 | 0.00 | 0.00 | 0.00 | 51 | 1014.8 |
| 20260901085519 | 25 | 124 | 12.9 | 25.7 | 0.00 | 0.00 | 0.00 | 52 | 1014.6 |
| 20260901084522 | 25 | 125 | 12.9 | 17.7 | 0.00 | 0.00 | 0.00 | 52 | 1014.7 |
| 20260901083517 | 25 | 153 | 11.3 | 19.3 | 0.00 | 0.00 | 0.00 | 51 | 1014.8 |
| 20260901082542 | 25 | 136 | 17.7 | 29.0 | 0.00 | 0.00 | 0.00 | 50 | 1014.8 |
| 20260901081518 | 25 | 123 | 20.9 | 35.4 | 0.00 | 0.00 | 0.00 | 50 | 1014.7 |
| 20260901080523 | 25 | 168 | 20.9 | 33.8 | 0.00 | 0.00 | 0.00 | 49 | 1014.7 |
| 20260901075516 | 24 | 128 | 20.9 | 45.1 | 0.00 | 0.00 | 0.00 | 50 | 1014.6 |
| 20260901074541 | 24 | 124 | 25.7 | 41.8 | 0.00 | 0.00 | 0.00 | 50 | 1014.4 |
| 20260901073517 | 24 | 134 | 30.6 | 51.5 | 0.00 | 0.00 | 0.00 | 50 | 1014.3 |
| 20260901072521 | 24 | 127 | 25.7 | 37.0 | 0.00 | 0.00 | 0.00 | 49 | 1014.4 |
| 20260901071518 | 23 | 126 | 25.7 | 41.8 | 0.00 | 0.00 | 0.00 | 51 | 1014.4 |
| 20260901070522 | 23 | 112 | 27.4 | 40.2 | 0.00 | 0.00 | 0.00 | 53 | 1014.5 |
| 20260901065518 | 23 | 114 | 29.0 | 46.7 | 0.00 | 0.00 | 0.00 | 53 | 1014.4 |
| 20260901064521 | 22 | 109 | 29.0 | 45.1 | 0.00 | 0.00 | 0.00 | 54 | 1014.4 |
| 20260901063517 | 22 | 111 | 22.5 | 41.8 | 0.00 | 0.00 | 0.00 | 57 | 1014.3 |
| 20260901062521 | 22 | 101 | 25.7 | 33.8 | 0.00 | 0.00 | 0.00 | 57 | 1014.2 |
| 20260901061518 | 22 | 107 | 25.7 | 37.0 | 0.00 | 0.00 | 0.00 | 56 | 1014.3 |
| 20260901060520 | 21 | 117 | 19.3 | 35.4 | 0.00 | 0.00 | 0.00 | 56 | 1014.3 |
| 20260901055521 | 21 | 116 | 14.5 | 32.2 | 0.00 | 0.00 | 0.00 | 58 | 1014.3 |
| 20260901054521 | 21 | 118 | 20.9 | 29.0 | 0.00 | 0.00 | 0.00 | 58 | 1014.3 |
| 20260901053522 | 21 | 106 | 20.9 | 30.6 | 0.00 | 0.00 | 0.00 | 58 | 1014.3 |
| 20260901052542 | 21 | 101 | 20.9 | 32.2 | 0.00 | 0.00 | 0.00 | 57 | 1014.3 |
| 20260901051518 | 21 | 121 | 27.4 | 37.0 | 0.00 | 0.00 | 0.00 | 57 | 1014.4 |
| 20260901050517 | 21 | 117 | 25.7 | 38.6 | 0.00 | 0.00 | 0.00 | 55 | 1014.3 |
| 20260901045537 | 21 | 94 | 20.9 | 32.2 | 0.00 | 0.00 | 0.00 | 52 | 1014.2 |
| 20260901044522 | 21 | 122 | 19.3 | 32.2 | 0.00 | 0.00 | 0.00 | 53 | 1014.3 |
| 20260901043537 | 21 | 101 | 17.7 | 24.1 | 0.00 | 0.00 | 0.00 | 53 | 1014.3 |
| 20260901042521 | 20 | 98 | 22.5 | 33.8 | 0.00 | 0.00 | 0.00 | 55 | 1014.2 |
| 20260901041517 | 20 | 106 | 20.9 | 27.4 | 0.00 | 0.00 | 0.00 | 56 | 1014.2 |
| 20260901040521 | 19 | 105 | 20.9 | 32.2 | 0.00 | 0.00 | 0.00 | 56 | 1014.0 |
| 20260901035517 | 19 | 97 | 24.1 | 33.8 | 0.00 | 0.00 | 0.00 | 56 | 1014.0 |
| 20260901034518 | 19 | 110 | 22.5 | 27.4 | 0.00 | 0.00 | 0.00 | 56 | 1014.0 |
| 20260901033520 | 19 | 95 | 24.1 | 38.6 | 0.00 | 0.00 | 0.00 | 55 | 1013.8 |
| 20260901032520 | 18 | 97 | 12.9 | 20.9 | 0.00 | 0.00 | 0.00 | 56 | 1013.8 |
| 20260901031517 | 19 | 104 | 12.9 | 25.7 | 0.00 | 0.00 | 0.00 | 56 | 1013.7 |
| 20260901030522 | 18 | 120 | 17.7 | 25.7 | 0.00 | 0.00 | 0.00 | 56 | 1013.7 |
| 20260901025518 | 18 | 83 | 11.3 | 16.1 | 0.00 | 0.00 | 0.00 | 57 | 1013.8 |
| 20260901024542 | 19 | 163 | 6.4 | 11.3 | 0.00 | 0.00 | 0.00 | 55 | 1013.8 |
| 20260901023516 | 19 | 113 | 9.7 | 24.1 | 0.00 | 0.00 | 0.00 | 54 | 1013.9 |
| 20260901022519 | 19 | 107 | 8.0 | 20.9 | 0.00 | 0.00 | 0.00 | 55 | 1013.9 |
| 20260901021516 | 20 | 137 | 6.4 | 14.5 | 0.00 | 0.00 | 0.00 | 54 | 1014.0 |
| 20260901020521 | 20 | 145 | 11.3 | 19.3 | 0.00 | 0.00 | 0.00 | 51 | 1014.1 |
| 20260901015517 | 21 | 115 | 29.0 | 35.4 | 0.00 | 0.00 | 0.00 | 50 | 1014.1 |
| 20260901014542 | 21 | 108 | 25.7 | 33.8 | 0.00 | 0.00 | 0.00 | 50 | 1014.2 |
| 20260901013517 | 21 | 103 | 29.0 | 45.1 | 0.00 | 0.00 | 0.00 | 50 | 1014.3 |
| 20260901012520 | 21 | 109 | 27.4 | 41.8 | 0.00 | 0.00 | 0.00 | 50 | 1014.2 |
| 20260901011517 | 21 | 75 | 19.3 | 33.8 | 0.00 | 0.00 | 0.00 | 51 | 1014.2 |
| 20260901010520 | 21 | 102 | 17.7 | 27.4 | 0.00 | 0.00 | 0.00 | 51 | 1014.4 |
| 20260901005518 | 21 | 100 | 20.9 | 30.6 | 0.00 | 0.00 | 0.00 | 52 | 1014.4 |
| 20260901004522 | 21 | 104 | 20.9 | 35.4 | 0.00 | 0.00 | 0.00 | 52 | 1014.4 |
| 20260901003538 | 21 | 105 | 19.3 | 27.4 | 0.00 | 0.00 | 0.00 | 52 | 1014.4 |
| 20260901002521 | 21 | 109 | 24.1 | 33.8 | 0.00 | 0.00 | 0.00 | 52 | 1014.4 |
| 20260901001517 | 21 | 114 | 22.5 | 33.8 | 0.00 | 0.00 | 0.00 | 52 | 1014.4 |
| 20260901000541 | 21 | 124 | 17.7 | 24.1 | 0.00 | 0.00 | 0.00 | 52 | 1014.6 |
| 20260831235518 | 22 | 121 | 20.9 | 51.5 | 0.00 | 0.00 | 0.00 | 51 | 1014.6 |
| 20260831234520 | 22 | 121 | 22.5 | 37.0 | 0.00 | 0.00 | 0.00 | 51 | 1014.7 |
| 20260831233517 | 22 | 118 | 24.1 | 30.6 | 0.00 | 0.00 | 0.00 | 51 | 1014.7 |
| 20260831232521 | 22 | 118 | 22.5 | 37.0 | 0.00 | 0.00 | 0.00 | 51 | 1014.8 |
| 20260831231517 | 22 | 125 | 22.5 | 38.6 | 0.00 | 0.00 | 0.00 | 51 | 1014.9 |
| 20260831230517 | 22 | 126 | 24.1 | 45.1 | 0.00 | 0.00 | 0.00 | 52 | 1014.9 |
| 20260831225518 | 22 | 123 | 20.9 | 29.0 | 0.00 | 0.00 | 0.00 | 52 | 1015.0 |
| 20260831224521 | 22 | 122 | 22.5 | 45.1 | 0.00 | 0.00 | 0.00 | 52 | 1015.1 |
| 20260831223517 | 22 | 127 | 20.9 | 37.0 | 0.00 | 0.00 | 0.00 | 52 | 1015.3 |
| 20260831222522 | 22 | 124 | 27.4 | 53.1 | 0.00 | 0.00 | 0.00 | 53 | 1015.4 |
| 20260831221518 | 22 | 125 | 19.3 | 35.4 | 0.00 | 0.00 | 0.00 | 54 | 1015.4 |
| 20260831220516 | 22 | 124 | 19.3 | 30.6 | 0.00 | 0.00 | 0.00 | 54 | 1015.4 |
| 20260831215516 | 22 | 123 | 25.7 | 38.6 | 0.00 | 0.00 | 0.00 | 55 | 1015.5 |
| 20260831214523 | 22 | 119 | 16.1 | 33.8 | 0.00 | 0.00 | 0.00 | 54 | 1015.5 |
| 20260831213517 | 22 | 123 | 17.7 | 27.4 | 0.00 | 0.00 | 0.00 | 54 | 1015.5 |
| 20260831212539 | 22 | 118 | 20.9 | 33.8 | 0.00 | 0.00 | 0.00 | 53 | 1015.5 |
| 20260831211517 | 22 | 120 | 27.4 | 41.8 | 0.00 | 0.00 | 0.00 | 53 | 1015.5 |
| 20260831210541 | 22 | 132 | 20.9 | 35.4 | 0.00 | 0.00 | 0.00 | 53 | 1015.4 |
| 20260831205517 | 23 | 126 | 19.3 | 33.8 | 0.00 | 0.00 | 0.00 | 52 | 1015.4 |
| 20260831204517 | 23 | 123 | 19.3 | 40.2 | 0.00 | 0.00 | 0.00 | 52 | 1015.3 |
| 20260831203518 | 23 | 123 | 19.3 | 33.8 | 0.00 | 0.00 | 0.00 | 50 | 1015.3 |
| 20260831202519 | 23 | 121 | 19.3 | 25.7 | 0.00 | 0.00 | 0.00 | 50 | 1015.2 |
| 20260831201539 | 23 | 116 | 20.9 | 30.6 | 0.00 | 0.00 | 0.00 | 49 | 1015.1 |
| 20260831200519 | 23 | 112 | 17.7 | 32.2 | 0.00 | 0.00 | 0.00 | 48 | 1015.0 |
| 20260831195517 | 24 | 104 | 20.9 | 27.4 | 0.00 | 0.00 | 0.00 | 48 | 1014.9 |
| 20260831194519 | 24 | 109 | 20.9 | 27.4 | 0.00 | 0.00 | 0.00 | 47 | 1014.8 |
| 20260831193537 | 24 | 106 | 19.3 | 25.7 | 0.00 | 0.00 | 0.00 | 47 | 1014.8 |
| 20260831192517 | 24 | 114 | 17.7 | 22.5 | 0.00 | 0.00 | 0.00 | 47 | 1014.7 |
| 20260831191517 | 24 | 114 | 17.7 | 24.1 | 0.00 | 0.00 | 0.00 | 47 | 1014.7 |
| 20260831190522 | 25 | 108 | 17.7 | 24.1 | 0.00 | 0.00 | 0.00 | 47 | 1014.7 |
| 20260831185517 | 25 | 109 | 22.5 | 32.2 | 0.00 | 0.00 | 0.00 | 47 | 1014.8 |
| 20260831184522 | 25 | 108 | 20.9 | 27.4 | 0.00 | 0.00 | 0.00 | 47 | 1014.8 |
| 20260831183518 | 25 | 105 | 20.9 | 27.4 | 0.00 | 0.00 | 0.00 | 46 | 1014.7 |
| 20260831182558 | 25 | 108 | 19.3 | 24.1 | 0.00 | 0.00 | 0.00 | 46 | 1014.7 |
| 20260831181518 | 25 | 109 | 20.9 | 24.1 | 0.00 | 0.00 | 0.00 | 46 | 1014.7 |
| 20260831180521 | 25 | 118 | 17.7 | 25.7 | 0.00 | 0.00 | 0.00 | 46 | 1014.6 |